Regional Weather Roundup
Issued by NWS

Home | Current Version | Previous Version | Graphics & Text | Print | Product List | Glossary On
Versions: 1 2 3 4 5 6 7 8 9 10 11 12 13 14 15 16 17 18 19 20 21 22 23 24 25 26 27 28 29 30 31 32 33 34 35 36 37 38 39 40 41 42 43 44 45 46 47 48 49 50
667
ASUS43 KBIS 250902
RWRND

NORTH DAKOTA REGIONAL WEATHER ROUNDUP
NATIONAL WEATHER SERVICE BISMARCK ND
300 AM CST SAT FEB 25 2017

NOTE: "FAIR" INDICATES FEW OR NO CLOUDS BELOW 12,000 FEET WITH NO
SIGNIFICANT WEATHER AND/OR OBSTRUCTIONS TO VISIBILITY.


NDZ001>003-009>011-017-251000-
NORTHWEST NORTH DAKOTA

CITY           SKY/WX    TMP DP  RH WIND       PRES   REMARKS
WILLISTON      CLOUDY    24  21  88 N5        29.97F WCI  18
MINOT          FLURRIES  25  20  81 SW13      29.93F WCI  14
$$

NDZ018>021-031>035-040>046-251000-
SOUTHWEST NORTH DAKOTA

CITY           SKY/WX    TMP DP  RH WIND       PRES   REMARKS
BISMARCK       CLOUDY    15  12  88 CALM      30.00F
DICKINSON      CLOUDY    22  16  78 SW10      29.92F WCI  11
GARRISON         N/A     18  14  84 CALM      29.96F
HETTINGER ARPT CLOUDY    20  14  77 CALM      29.97F
$$

NDZ004>008-012>016-024-026-027-054-251000-
NORTHEAST NORTH DAKOTA

CITY           SKY/WX    TMP DP  RH WIND       PRES   REMARKS
GRAND FORKS    MOCLDY    17   9  70 CALM      30.02F
GRND FRKS AFB  MOCLDY    15  12  86 SW6       30.01F WCI   7
DEVILS LAKE    CLOUDY    16  13  88 SW6       29.96F WCI   7
$$

NDZ022-023-025-028>030-036>039-047>053-251000-
SOUTHEAST NORTH DAKOTA

CITY           SKY/WX    TMP DP  RH WIND       PRES   REMARKS
FARGO          CLEAR     15  12  88 CALM      30.04F
JAMESTOWN      FAIR      14  11  87 CALM      29.99F
$$





USA.gov is the U.S. government's official web portal to all federal, state and local government web resources and services.